Regional Weather Roundup
Issued by NWS Sioux Falls, SD

Home | Current Version | Previous Version | Graphics & Text | Print | Product List | Glossary Off
Versions: 1 2 3 4 5 6 7 8 9 10 11 12 13 14 15 16 17 18 19 20 21 22 23 24 25 26 27 28 29 30 31 32 33 34 35 36 37 38 39 40 41 42 43 44 45 46 47 48 49 50

000
ASUS43 KFSD 280810
RWRFSD

WEATHER ROUNDUP FOR SE SOUTH DAKOTA/SW MINNESOTA/NW IOWA
NATIONAL WEATHER SERVICE SIOUX FALLS SD
300 AM CDT THU JUL 28 2016

NOTE: "FAIR" INDICATES FEW OR NO CLOUDS BELOW 12,000 FEET WITH NO
SIGNIFICANT WEATHER AND OR OBSTRUCTIONS TO VISIBILITY.


SDZ038>040-050-052>070-280900-
SOUTHEAST SOUTH DAKOTA

CITY           SKY/WX    TMP DP  RH WIND       PRES   REMARKS
BROOKINGS      CLOUDY    61  58  90 N6        30.05F
CHAMBERLAIN    MOCLDY    67  61  79 NE5       30.08S
HURON          MOCLDY    63  59  87 NW6       30.06S
MADISON        FAIR      63  63 100 NE8       30.06S
MITCHELL       PTCLDY    65  62  90 NW5       30.06R
SIOUX FALLS    CLOUDY    63  58  83 N3        30.04S
WINNER         FAIR      61  58  90 CALM      30.09F
YANKTON        PTCLDY    68  61  77 CALM      30.02S
$$

MNZ071-072-080-081-089-090-097-098-280900-
SOUTHWEST MINNESOTA

CITY           SKY/WX    TMP DP  RH WIND       PRES   REMARKS
FAIRMONT       CLEAR     64  59  82 N6        29.99S
JACKSON        CLEAR     63  61  94 NW5       30.03S
LUVERNE        CLEAR     63  55  77 N5        30.03F
MARSHALL       MOCLDY    60  58  92 NW7       30.04S
MONTEVIDEO     PTCLDY    61  57  88 N5        30.04S
REDWOOD FALLS  CLOUDY    65  62  90 N5        30.01F
TRACY          PTCLDY    62  60  93 NW6       30.03F
WINDOM         CLOUDY    63  61  94 NW6       30.02F
WORTHINGTON    CLEAR     62  59  90 NE5       30.03F
$$

IAZ001>003-012>014-020>022-031-032-NEZ013-014-SDZ071-280900-
NORTHWEST IOWA

CITY           SKY/WX    TMP DP  RH WIND       PRES   REMARKS
CHEROKEE       CLEAR     65  65  99 N3        30.01R
DENISON        PTCLDY    68  66  94 NE6       29.98S
ESTHERVILLE    CLEAR     63  63 100 NW6       30.01S
LE MARS        CLEAR     66  63  88 CALM      30.03F
SHELDON        CLEAR     64  61  88 N6        30.01S
SIOUX CITY     CLOUDY    73  63  70 N8        30.01S
SPENCER        CLEAR     65  62  90 N9        30.01F
STORM LAKE     CLEAR     66  64  94 N5        30.01R
$$

ABBREVIATIONS USED IN REMARKS
   TC - TEMPERATURE IN CELSIUS
  WCI - WIND CHILL INDEX
   HX - HEAT INDEX
  VSB - VISIBILITY





USA.gov is the U.S. government's official web portal to all federal, state and local government web resources and services.